Location: Newark
(49.3667°N, 21.6167°E)
Time: 05:40:16
(UTC+00:00)

Envisat - Pass Details

Date: 09 December 2019
Orbit: 764 x 766 km, 98.1° (Epoch: 20 January)

Event Time Altitude Azimuth Distance (km) Brightness Sun altitude
Rises 05:14:41 0° 16° (NNE) 3,246 6.2 -9.6°
Reaches altitude 10° 05:17:03 10° 20° (NNE) 2,315 5.5 -9.2°
Maximum altitude 05:22:06 62° 101° (E) 861 3.6 -8.5°
Drops below altitude 10° 05:27:07 10° 182° (S) 2,297 5.8 -7.7°
Sets 05:29:26 0° 186° (S) 3,218 6.5 -7.4°
